Location: Binningen
(47.7924°N, 8.7261°E)
Time: 04:30:35
(UTC+00:00)

Cosmos 1733 Rocket - Pass Details

Date: 02 October 2021
Orbit: 604 x 627 km, 82.5° (Epoch: 16 October)

Event Time Altitude Azimuth Distance (km) Brightness Sun altitude
Rises 03:24:17 0° 353° (N) 2,897 6.7 -20.9°
Reaches altitude 10° 03:26:33 10° 357° (N) 1,991 5.8 -20.6°
Maximum altitude 03:30:54 61° 78° (ENE) 711 3.6 -19.9°
Drops below altitude 10° 03:35:16 10° 159° (SSE) 1,989 5.7 -19.2°
Sets 03:37:31 0° 163° (SSE) 2,893 6.5 -18.8°
